Back to catalog

STARLINK-33554

AliveCommunicationsVLEO
NORAD 62103·PAYLOAD·🇺🇸 United States

Launched Nov 25, 2024 from Cape Canaveral Space Force Station

Loading…

Next Passes (next 24 hours)

TLE

FreshSource: CelesTrak SupGP

Epoch: Sep 14, 2026, 22:37 UTC

1 62103C 24220R   26257.94284722  .00005345  00000+0  19357-3 0  2573
2 62103  42.9997 216.4397 0001070 259.4304 275.4924 15.27577676    18

Track STARLINK-33554 in real time with AllMySat

Download on the App Store